Regional Weather Roundup
Issued by NWS

Home | Current Version | Previous Version | Text Only | Print | Product List | Glossary Off
Versions: 1 2 3 4 5 6 7 8 9 10 11 12 13 14 15 16 17 18 19 20 21 22 23 24 25 26 27 28 29 30 31 32 33 34 35 36 37 38 39 40 41 42 43 44 45 46 47 48 49 50

000
ASUS43 KMKX 271000
RWRWI

WISCONSIN REGIONAL WEATHER ROUNDUP
NATIONAL WEATHER SERVICE MILWAUKEE/SULLIVAN WI
400 AM CST SAT DEC 27 2014

NOTE: "FAIR" INDICATES FEW OR NO CLOUDS BELOW 12,000 FEET WITH NO
SIGNIFICANT WEATHER AND/OR OBSTRUCTIONS TO VISIBILITY.

WIZ001-002-006>008-014>016-023>028-271100-
NORTHWEST WISCONSIN

CITY           SKY/WX    TMP DP  RH WIND       PRES   REMARKS
SUPERIOR ARPT  CLOUDY    26  19  76 N7        30.06F WCI  18
ASHLAND        LGT SNOW  27  25  92 N10       30.03F FOG     WCI  17
HAYWARD        LGT SNOW  27  24  89 N6        29.97F VSB 3/4 WCI  20
SIREN          LGT SNOW  25  23  93 N9        30.00F WCI  15
CUMBERLAND     LGT SNOW  27  25  93 N10       29.96F WCI  17
RICE LAKE      LGT SNOW  28  26  92 N13       29.95F WCI  17
CHETEK         LGT SNOW  28  27  96 N7        29.95F WCI  21
LADYSMITH      LGT SNOW  29  28  95 N9        29.95F WCI  21
EAU CLAIRE     LGT SNOW  28  27  93 N9        29.91F FOG     WCI  20
MENOMONIE      LGT SNOW  30  28  94 N8        29.93F WCI  22
NEW RICHMOND   LGT SNOW  27  26  99 N10       29.97F WCI  17
OSCEOLA        LGT SNOW  26  26 100 N7        30.02F WCI  18
$$

WIZ003>005-009-010-017-018-271100-
NORTH CENTRAL WISCONSIN

CITY           SKY/WX    TMP DP  RH WIND       PRES   REMARKS
MANITOWISH WTR LGT SNOW  28  28 100 N3        29.94F
ARBOR VITAE    LGT SNOW  32  30  94 NE3       29.93F
WOODRUFF       LGT SNOW  32  30  94 NE3       29.93F
RHINELANDER    LGT SNOW  29  27  92 NE6       29.93S VSB 1   WCI  23
EAGLE RIVER    MIX PCPN  29  29 100 CALM      29.92F
LAND O LAKES   LGT SNOW  29  28  96 NE5       29.94F WCI  24
PHILLIPS       LGT SNOW  28  26  96 N8        29.93F WCI  19
TOMAHAWK       LGT SNOW  29  28  95 CALM      29.93F
MEDFORD        MIX PCPN  30  29  96 NE7       29.90F WCI  23
MERRILL        LGT SNOW  31  31 100 NE3       29.93S
$$

WIZ029-030-035-036-043>047-271100-
CENTRAL WISCONSIN

CITY           SKY/WX    TMP DP  RH WIND       PRES   REMARKS
WAUSAU         LGT SNOW  32  31  96 NE6       29.87F FOG     WCI  26
MOSINEE        LGT SNOW  32  32 100 E6        29.91F WCI  26
MARSHFIELD     LGT SNOW  33  31  92 NE8       29.86F FOG     WCI  26
STEVENS POINT  MIX PCPN  31  31 100 E6        29.90F VSB 3/4 WCI  25
WAUPACA        FOG       35  34  96 NE5       29.90F VSB 1/2 WCI  31
WAUTOMA        NOT AVBL
WISC RAPIDS    FOG       33  31  92 E6        29.88F VSB 1   WCI  28
CAMP DOUGLAS   CLOUDY    32  32 100 E5        29.88F FOG     WCI  27
$$

WIZ011>013-019>022-031-037>040-048>050-271100-
NORTHEAST WISCONSIN

CITY           SKY/WX    TMP DP  RH WIND       PRES   REMARKS
ANTIGO         LGT SNOW  31  31  99 E5        29.92F WCI  26
SHAWANO        DRZL/FOG  34  33  96 NE3       29.94F VSB 1/4
OCONTO         CLOUDY    33  33 100 NE3       29.96F
STURGEON BAY   CLOUDY    37  36  93 CALM      29.97F VSB 1/4
GREEN BAY      MIX PCPN  34  34 100 NE7       29.94F VSB 1/4 WCI  28
MANITOWOC      LGT RAIN  36  36 100 CALM      29.94F VSB 1/2
APPLETON       FOG       32  32 100 NE6       29.93F VSB 1/4 WCI  26
CLINTONVILLE   LGT RAIN  32  32 100 E3        29.93F VSB 1/4
OSHKOSH        CLOUDY    34  32  92 NE3       29.91F FOG
$$

WIZ032>034-041-042-053>061-271100-
SOUTHWEST WISCONSIN

CITY           SKY/WX    TMP DP  RH WIND       PRES   REMARKS
LA CROSSE      MIX PCPN  33  32  96 N5        29.88F FOG     WCI  29
SPARTA         RAIN      33  33 100 CALM      29.90F
VIROQUA        CLOUDY    33  33 100 E3        29.86S
BOSCOBEL       CLOUDY    34  32  92 CALM      29.88F FOG
PRAIRIE DU CHI DRIZZLE   34  32  93 CALM      29.89S
PLATTEVILLE    CLOUDY    39  38  95 SE6       29.89R WCI  35
$$

WIZ056-057-062-063-064-067-068-271100-
SOUTH CENTRAL WISCONSIN

CITY           SKY/WX    TMP DP  RH WIND       PRES   REMARKS
REEDSBURG      CLOUDY    32  32 100 CALM      29.88F FOG
BARABOO/DELLS  CLOUDY    32  32  99 N3        29.86F FOG
LONE ROCK      CLOUDY    37  32  82 W8        29.90R WCI  31
MINERAL POINT  CLOUDY    41  37  87 SE6       29.87S FOG
MADISON        CLOUDY    37  36  96 CALM      29.88F FOG
MIDDLETON      CLOUDY    37  37 100 CALM      29.88F
WATERTOWN      CLOUDY    39  39 100 SE3       29.90F FOG
MONROE         CLOUDY    43  41  93 S9        29.86F FOG
JANESVILLE     CLOUDY    45  43  93 SE8       29.90F
$$

WIZ051-052-058>065-066-070>072-271100-
SOUTHEAST WISCONSIN

CITY           SKY/WX    TMP DP  RH WIND       PRES   REMARKS
MILWAUKEE      LGT RAIN  45  41  86 S8        29.93F
WAUKESHA       CLOUDY    41  39  93 S6        29.93F
MILWAUKEE/TIMM CLOUDY    43  39  87 CALM      29.94F FOG
RACINE         CLOUDY    44  40  85 S5        29.95F
BURLINGTON     CLOUDY    43  41  93 CALM      29.93F
KENOSHA        CLOUDY    46  43  89 S9        29.94F
FOND DU LAC    LGT RAIN  35  33  92 SE5       29.90F FOG     WCI  31
SHEBOYGAN      FOG       35  34  96 CALM      29.93F VSB 1/2
WEST BEND      RAIN      36  34  93 CALM      29.93F
JUNEAU         DRIZZLE   37  36  96 E6        29.92F WCI  32
$$

LSZ147-162-271100-
LAKE SUPERIOR

STATION/POSITION TIME  TEMP    WIND        PRES    WAVE
                       AIR SEA DIR/SP/G            HT/PER
                 (UTC) (F)     (DEG/KT/KT) (MB)    (FT/S)
DEVILS ISLAND    0900   30      20/ 12/ 14 1018.6F
PORT WING        0900   30      20/  6/ 10 1018.3R
SAXON HARBOR     0900   31      10/ 11/ 14 1016.9F
$$

LMZ867-665-643>646-271100-
LAKE MICHIGAN

STATION/POSITION TIME  TEMP    WIND        PRES    WAVE
                       AIR SEA DIR/SP/G            HT/PER
                 (UTC) (F)     (DEG/KT/KT) (MB)    (FT/S)
CHAMBERS ISLAND  0900   34      20/ 10/ 11 1015.2F
NORTHPORT PIER   0900   35      40/  6/ 10 1015.2F
SISTER BAY       0813          110/  4/  7   N/A
ALGOMA LAKESHORE 0930             CALM       N/A
KEWAUNEE LAKESHO 0900   38      CALM  /  4 1013.8F
SHEBOYGAN LAKESH 0900   39 38  360/  1/  1 1015.3F
PORT WASHINGTON  0940   39      CALM  /  1 1014.6F
MILWAUKEE LAKESH 0900   40     150/  7/  8   N/A
KENOSHA   LAKESH 0900   39     160/  7/  9 1014.6F
$$

TC  - TEMPERATURE IN CELSIUS
VSB - VISIBILITY IN STATUTE MILES
WCI - WIND CHILL INDEX
HX  - HEAT INDEX




USA.gov is the U.S. government's official web portal to all federal, state and local government web resources and services.